TimeMDT,TemperatureF,Dew PointF,Humidity,Sea Level PressureIn,VisibilityMPH,Wind Direction,Wind SpeedMPH,Gust SpeedMPH,PrecipitationIn,Events,Conditions,WindDirDegrees,DateUTC
12:55 AM,45.0,28.9,53,29.77,10.0,Calm,Calm,-,N/A,,Partly Cloudy,0,2013-09-23 06:55:00
1:55 AM,46.9,28.9,50,29.77,10.0,Calm,Calm,-,N/A,,Overcast,0,2013-09-23 07:55:00
2:55 AM,48.0,28.9,48,29.78,10.0,Calm,Calm,-,N/A,,Overcast,0,2013-09-23 08:55:00
3:55 AM,46.9,30.9,54,29.79,10.0,West,3.5,-,N/A,,Overcast,260,2013-09-23 09:55:00
4:55 AM,48.0,32.0,54,29.80,10.0,Calm,Calm,-,N/A,,Overcast,0,2013-09-23 10:55:00
5:55 AM,46.0,32.0,58,29.81,10.0,Calm,Calm,-,N/A,,Mostly Cloudy,0,2013-09-23 11:55:00
6:55 AM,44.1,34.0,68,29.86,10.0,Calm,Calm,-,N/A,,Scattered Clouds,0,2013-09-23 12:55:00
7:55 AM,46.0,30.9,56,29.87,10.0,Calm,Calm,-,N/A,,Clear,0,2013-09-23 13:55:00
8:55 AM,51.1,30.0,44,29.88,10.0,South,10.4,-,N/A,,Clear,180,2013-09-23 14:55:00
9:55 AM,55.9,25.0,30,29.90,10.0,West,8.1,18.4,N/A,,Clear,260,2013-09-23 15:55:00
10:55 AM,55.9,24.1,29,29.92,10.0,SW,12.7,20.7,N/A,,Clear,220,2013-09-23 16:55:00
11:55 AM,59.0,24.1,26,29.91,10.0,SSW,6.9,-,N/A,,Clear,200,2013-09-23 17:55:00
12:55 PM,61.0,23.0,23,29.90,10.0,West,10.4,-,N/A,,Clear,270,2013-09-23 18:55:00
1:55 PM,63.0,19.9,19,29.87,10.0,Calm,Calm,-,N/A,,Clear,0,2013-09-23 19:55:00
2:55 PM,64.9,21.0,19,29.85,10.0,SW,9.2,-,N/A,,Clear,230,2013-09-23 20:55:00
3:55 PM,66.0,23.0,20,29.84,10.0,SW,11.5,-,N/A,,Clear,220,2013-09-23 21:55:00
4:55 PM,66.0,23.0,20,29.84,10.0,SSW,6.9,-,N/A,,Clear,200,2013-09-23 22:55:00
5:55 PM,64.9,21.9,19,29.85,10.0,SW,9.2,21.9,N/A,,Clear,230,2013-09-23 23:55:00
6:55 PM,62.1,24.1,23,29.88,10.0,WSW,12.7,18.4,N/A,,Clear,250,2013-09-24 00:55:00
7:55 PM,59.0,25.0,27,29.90,10.0,WSW,9.2,-,N/A,,Clear,250,2013-09-24 01:55:00
8:55 PM,57.9,26.1,30,29.91,10.0,West,19.6,-,N/A,,Clear,280,2013-09-24 02:55:00
9:55 PM,55.9,27.0,33,29.92,10.0,WNW,10.4,-,N/A,,Clear,290,2013-09-24 03:55:00
10:55 PM,51.1,28.9,43,29.94,10.0,ESE,5.8,-,N/A,,Clear,120,2013-09-24 04:55:00
11:55 PM,51.1,28.9,43,29.92,10.0,ESE,3.5,-,N/A,,Clear,110,2013-09-24 05:55:00